Flag for U.S.A. Weather past 2 weeks in Cocoa Beach, Florida, U.S.A.

Now
74 °F

Clear.


Feels Like: 77 °F
Forecast: 70 / 78 °F
Wind: 12 mph from East

Location: Cocoa / Patrick Air Force Base

Current Time: May 3, 2015 at 11:01:55 PM

Latest Report: May 3, 2015 at 9:58 PM


Visibility: 10 mi

Pressure: 30.18 "Hg

Humidity: 52%

Dew point: 55 °F

Location of Cocoa BeachLocation

Historic Weather in Cocoa Beach — Graph

°F

Cocoa Beach temperature yesterday

Maximum temperature yesterday: 78 °F (at 12:58 PM)
Minimum temperature yesterday: 69 °F (at 5:58 AM)
Average temperature yesterday: 74 °F

Past Weeks' High & Low Weather Summary

 TemperatureHumidityPressure
High91 °F (Apr 26, 1:58 PM)95% (Apr 24, 4:58 AM)30.18 "Hg (Apr 24, 4:58 AM)
Low66 °F (May 1, 6:58 AM)30% (May 1, 1:58 PM)29.61 "Hg (Apr 29, 4:58 PM)
Average77 °F73%29.90 "Hg
* Reported Apr 18 9:58 PM — May 3 9:58 PM, Cocoa Beach, Weather by CustomWeather, © 2015

Note: Actual official high and low records may vary slightly from our data, if they occured in-between our weather recording intervals... More about our weather records

Advertising

Cocoa Beach weather history for previous 24 hours

 ConditionsComfort  
Time TempWeatherWind HumidityBarometerVisibility
9:58 PM
Sun, May 3
74 °FClear.12 mph52%30.18 "Hg10 mi
8:58 PM74 °FClear.9 mph51%30.16 "Hg10 mi
7:58 PM74 °FPassing clouds.13 mph51%30.15 "Hg10 mi
6:58 PM76 °FSunny.10 mph51%30.15 "Hg10 mi
6:00 PM77 °FPassing clouds.13 mph54%30.13 "Hg10 mi
4:58 PM79 °FSunny.13 mph47%30.13 "Hg10 mi
3:58 PM79 °FSunny.13 mph45%30.14 "Hg10 mi
2:58 PM80 °FSunny.13 mph46%30.15 "Hg10 mi
1:58 PM80 °FPassing clouds.13 mph45%30.17 "Hg10 mi
12:58 PM80 °FSunny.9 mph45%30.17 "Hg10 mi
11:58 AM80 °FPassing clouds.13 mph45%30.17 "Hg10 mi
10:58 AM76 °FPartly sunny.12 mph52%30.17 "Hg10 mi
9:58 AM76 °FBroken clouds.10 mph50%30.15 "Hg10 mi
8:58 AM75 °FPassing clouds.8 mph50%30.14 "Hg10 mi
7:58 AM74 °FSunny.8 mph49%30.12 "Hg10 mi
6:58 AM70 °FClear.7 mph48%30.11 "Hg10 mi
5:58 AM71 °FClear.7 mph43%30.09 "Hg10 mi
4:58 AM71 °FClear.10 mph43%30.09 "Hg10 mi
3:58 AM72 °FClear.12 mph56%30.08 "Hg10 mi
2:58 AM72 °FPassing clouds.10 mph54%30.08 "Hg10 mi
1:58 AM73 °FPassing clouds.8 mph56%30.09 "Hg10 mi
12:58 AM73 °FPartly cloudy.5 mph58%30.10 "Hg10 mi
11:58 PM
Sat, May 2
72 °FClear.9 mph60%30.10 "Hg10 mi
Weather by CustomWeather, © 2015

See weather overviewHow to use our weather pages